Terug naar catalogus

CZ-6A DEB

ActiefSSO
NORAD 56595·DEBRIS·🇨🇳 China

Gelanceerd Nov 11, 2022 vanaf Taiyuan Satellite Launch Center

Loading…

Volgende Passages (komende 24 uur)

TLE

VersSource: Space-Track

Epoch: Sep 13, 2026, 17:35 UTC

1 56595U 22151ADT 26256.73306314  .00000836  00000-0  36939-3 0  9999
2 56595  98.7354 258.3607 0130771 284.0853  74.5819 14.21491385175474

Volg CZ-6A DEB in realtime met AllMySat

Download on the App Store